[[{"header":{"parameterUnit":"m.s-1","parameterCategory":1,"la1":30.2991,"la2":30.254,"lo1":-89.0895,"lo2":-89.0444,"dy":0.0017,"dx":0.0017,"nx":28,"ny":28,"refTime":"2023-09-16T09:00:00:Z","depth":0,"parameterNumber":2,"parameterNumberName":"U-component_of_WINDS"},"data":[0,0,0,0,0,0,0,0,0,0,0,0,0,0,0,0,0,0,0,0,0,0,0,0,0,0,0,0,0,0,0,0,0,0,0,0,0,0,0,0,0,0,0,0,0,0,0,0,0,0,0,0,0,0,0,0,0,0,2.772,2.7722,0,2.796,2.7963,2.7966,2.8015,2.8013,2.8012,2.801,2.826,2.8268,2.8276,0,0,0,0,0,0,0,0,0,0,0,0,0,2.7307,2.7314,2.7719,2.7722,2.7725,2.796,2.7963,2.7966,2.8016,2.8013,2.8011,2.8009,2.8257,2.8267,2.8277,0,0,0,0,0,0,0,0,0,0,0,0,0,2.7511,2.7316,2.7719,2.7778,2.7786,2.7959,2.7963,2.7967,2.8016,2.8013,2.801,2.8008,2.8254,2.8266,2.8278,2.841,0,0,2.8316,2.8322,0,0,0,0,0,0,0,0,2.7499,2.7526,2.7766,2.7774,2.7783,2.7955,2.7909,2.8116,2.8017,2.7929,2.801,2.8007,2.8161,2.8181,2.8232,2.8422,2.8433,2.8318,2.8325,2.8331,2.8334,0,0,0,0,0,0,0,2.7485,2.7516,2.7815,2.777,2.778,2.7794,2.782,2.7949,2.8057,2.7936,2.794,2.7968,2.8165,2.822,2.8238,2.8437,2.8317,2.8328,2.8336,2.8341,2.875,2.8754,0,0,0,0,0,0,2.746,2.7504,2.7807,2.7822,2.7631,2.7804,2.7833,2.7903,2.8056,2.8077,2.797,2.7969,2.82,2.8223,2.8247,2.8414,2.833,2.8342,2.8349,2.8747,2.8751,2.8755,0,0,0,0,0,0,2.7451,2.7486,2.7797,2.7664,2.7705,2.7814,2.7892,2.7909,2.7964,2.8082,2.8101,2.8006,2.8198,2.8229,2.837,2.8423,2.8348,2.8359,2.8743,2.8748,2.8753,2.8746,0,0,0,0,0,0,2.7439,2.7483,2.7533,2.7665,2.7712,2.7914,2.7895,2.7915,2.7985,2.7986,2.8121,2.814,2.8199,2.8351,2.8382,2.8439,2.8369,2.8739,2.8745,2.8751,2.8742,2.875,2.8757,0,0,0,0,0,2.7424,2.7521,2.7535,2.7571,2.7776,2.7917,2.7944,2.8009,2.7989,2.8041,2.8117,2.8136,2.8412,2.8365,2.8401,2.8462,2.8736,2.8744,2.8751,2.8739,2.8749,2.8757,0,0,0,0,0,0,2.7393,2.754,2.7556,2.7699,2.7796,2.7925,2.7993,2.8017,2.8121,2.8118,2.8195,2.8225,2.8361,2.8426,2.837,2.8599,2.8573,2.8588,2.8552,2.8562,2.857,2.8551,2.8379,0,0,0,0,0,2.7403,2.7504,2.7627,2.7742,2.7789,2.7883,2.7947,2.7988,2.8091,2.8132,2.8218,2.8319,2.8429,2.8499,2.8606,2.8752,2.8783,2.8812,2.882,2.8825,2.8837,2.8922,2.8936,2.878,2.878,2.8779,0,0,2.7425,2.7517,2.7576,2.7738,2.7817,2.7922,2.7916,2.8027,2.8106,2.8149,2.8287,2.8354,2.8472,2.8616,2.8683,2.8674,2.8888,2.8835,2.8839,2.8848,2.8931,2.8945,2.8959,2.8785,2.8784,2.8783,0,0,2.7517,2.7597,2.7702,2.7781,2.7902,2.7964,2.7989,2.8116,2.8162,2.8301,2.8337,2.8433,2.862,2.8702,2.8769,2.8896,2.8917,2.8929,2.8968,2.9049,2.9061,2.9073,2.9119,2.9135,2.894,2.894,2.894,0,2.7529,2.7686,2.7753,2.7862,2.7933,2.7977,2.8085,2.816,2.8309,2.8358,2.8345,2.8582,2.8664,2.8829,2.886,2.8912,2.8944,2.8913,2.9054,2.9066,2.9078,2.9123,2.914,2.8941,2.8941,2.8941,2.8941,0,2.7695,2.7804,2.7875,2.8018,2.8097,2.8205,2.8289,2.8362,2.8397,2.8461,2.8604,2.8705,2.8834,2.8876,2.8912,2.9047,2.9038,2.9038,2.9014,2.9092,2.9136,2.9154,2.8942,2.8942,2.8941,2.8941,0,0,2.7774,2.7953,2.7978,2.8044,2.8181,2.8267,2.8379,2.8505,2.8566,2.8668,2.8765,2.8923,2.8925,2.9001,2.9047,2.9118,2.9213,2.911,2.9114,2.9126,2.9371,2.9369,2.9388,2.9229,2.9232,2.9235,2.9361,0,2.7883,2.8081,2.8146,2.8312,2.8414,2.8459,2.8557,2.8652,2.8716,2.8813,2.8884,2.8996,2.8989,2.9036,2.9108,2.9186,2.9263,2.9178,2.9321,2.9325,2.9289,2.941,2.9409,2.9522,2.9378,2.9381,2.9383,0,2.8037,2.8141,2.8317,2.8443,2.8488,2.8574,2.8696,2.8788,2.8899,2.894,2.9026,2.9066,2.9187,2.9156,2.9323,2.9264,2.9327,2.9374,2.938,2.9396,2.9358,2.943,2.956,2.9577,2.9411,2.9409,2.9407,0,2.8077,2.8262,2.8391,2.8447,2.8596,2.8656,2.8722,2.8829,2.8902,2.9009,2.9057,2.9177,2.9242,2.9335,2.9408,2.9379,2.957,2.9545,2.9609,2.9608,2.9647,2.9644,2.9789,2.9687,2.9687,2.9687,2.9686,0,2.8192,2.8298,2.8412,2.8491,2.8612,2.8686,2.8805,2.8873,2.8969,2.9064,2.9111,2.92,2.9291,2.9392,2.945,2.9581,2.9611,2.9649,2.9663,2.9645,2.964,2.9686,2.9681,2.9691,2.969,2.9689,2.9689,0,2.8257,2.8337,2.8481,2.8612,2.8647,2.8731,2.8844,2.8924,2.899,2.911,2.9143,2.9247,2.9369,2.9451,2.9608,2.9647,2.979,2.9802,2.9752,2.9759,2.9819,2.9812,3.0,3.0029,2.9906,2.9907,2.9908,0,2.8325,2.8408,2.8547,2.8614,2.868,2.8786,2.8861,2.8938,2.9013,2.9147,2.9212,2.9337,2.944,2.9634,2.9725,2.9845,2.9861,2.9919,2.988,2.9859,2.9863,2.9857,2.9867,2.9925,2.9926,2.9926,2.9927,0,2.8438,2.8474,2.8578,2.8697,2.8784,2.8882,2.898,2.9032,2.9127,2.921,2.9335,2.9416,2.9576,2.97,2.983,2.9899,2.993,2.9939,2.996,2.9942,2.991,2.9929,2.9769,2.9934,2.9933,2.9933,2.9932,2.9932,2.8507,2.8583,2.8694,2.8809,2.8891,2.8982,2.9064,2.9141,2.9246,2.9382,2.9422,2.9552,2.9664,2.984,2.9912,3.0017,3.0012,3.0042,3.005,3.0057,3.0057,2.9893,3.0041,3.0041,3.0041,3.0041,3.0041,0,2.8623,2.8697,2.8802,2.8938,2.9029,2.9049,2.916,2.9235,2.9349,2.945,2.9551,2.9696,2.9817,2.9918,3.0044,3.0109,3.0126,3.0139,3.0135,3.0151,3.0054,3.0023,3.0123,3.0123,3.0123,3.0123,3.0123,3.0123,2.8694,2.8824,2.8874,2.9046,2.912,2.9247,2.9309,2.9394,2.9475,2.9634,2.9735,2.9799,2.9901,3.0035,3.0148,3.0175,3.022,3.023,3.026,3.0167,3.0158,3.0149,3.012,3.0239,3.0239,3.0348,3.0349,3.035]},{"header":{"parameterUnit":"m.s-1","parameterCategory":1,"la1":30.2991,"la2":30.254,"lo1":-89.0895,"lo2":-89.0444,"dy":0.0017,"dx":0.0017,"nx":28,"ny":28,"refTime":"2023-09-16T09:00:00:Z","depth":0,"parameterNumber":3,"parameterNumberName":"V-component_of_WINDS"},"data":[0,0,0,0,0,0,0,0,0,0,0,0,0,0,0,0,0,0,0,0,0,0,0,0,0,0,0,0,0,0,0,0,0,0,0,0,0,0,0,0,0,0,0,0,0,0,0,0,0,0,0,0,0,0,0,0,0,0,-2.2983,-2.2983,0,-2.2993,-2.2993,-2.2993,-2.2967,-2.2966,-2.2966,-2.2965,-2.2975,-2.2976,-2.2977,0,0,0,0,0,0,0,0,0,0,0,0,0,-2.294,-2.2941,-2.2983,-2.2983,-2.2983,-2.2993,-2.2993,-2.2993,-2.2967,-2.2966,-2.2965,-2.2965,-2.2975,-2.2976,-2.2977,0,0,0,0,0,0,0,0,0,0,0,0,0,-2.2955,-2.2942,-2.2983,-2.2971,-2.297,-2.2993,-2.2993,-2.2993,-2.2968,-2.2966,-2.2965,-2.2964,-2.2974,-2.2976,-2.2977,-2.3011,0,0,-2.2982,-2.2983,0,0,0,0,0,0,0,0,-2.2955,-2.2957,-2.2973,-2.2972,-2.2971,-2.2978,-2.2982,-2.2999,-2.2968,-2.2969,-2.2965,-2.2963,-2.2977,-2.2978,-2.2983,-2.3011,-2.3012,-2.2982,-2.2983,-2.2984,-2.2984,0,0,0,0,0,0,0,-2.2954,-2.2956,-2.2987,-2.2973,-2.2972,-2.2965,-2.2966,-2.2985,-2.2979,-2.2969,-2.2967,-2.2968,-2.2976,-2.2981,-2.2983,-2.3012,-2.2982,-2.2983,-2.2984,-2.2985,-2.3067,-2.3069,0,0,0,0,0,0,-2.2954,-2.2956,-2.2986,-2.2987,-2.296,-2.2967,-2.2968,-2.2977,-2.2979,-2.2978,-2.2969,-2.2967,-2.2979,-2.2981,-2.2983,-2.3021,-2.2984,-2.2985,-2.2986,-2.3066,-2.3068,-2.3069,0,0,0,0,0,0,-2.2953,-2.2957,-2.2986,-2.2971,-2.2974,-2.2969,-2.2979,-2.2978,-2.2983,-2.298,-2.2979,-2.2976,-2.2978,-2.2981,-2.3004,-2.3021,-2.2986,-2.2987,-2.3065,-2.3067,-2.3068,-2.3099,0,0,0,0,0,0,-2.2952,-2.2957,-2.297,-2.2971,-2.2975,-2.3007,-2.298,-2.2979,-2.2985,-2.2983,-2.2985,-2.2985,-2.2978,-2.3002,-2.3005,-2.3023,-2.2988,-2.3063,-2.3065,-2.3068,-2.3096,-2.3101,-2.3106,0,0,0,0,0,-2.2951,-2.2978,-2.2971,-2.2975,-2.2991,-2.3008,-2.301,-2.3002,-2.2987,-2.3,-2.2998,-2.2984,-2.3019,-2.3004,-2.3008,-2.3026,-2.3062,-2.3065,-2.3068,-2.3094,-2.31,-2.3106,0,0,0,0,0,0,-2.2979,-2.2978,-2.297,-2.2999,-2.3004,-2.3004,-2.302,-2.3009,-2.3018,-2.3015,-2.3004,-2.3005,-2.303,-2.303,-2.3014,-2.3058,-2.3038,-2.3042,-2.3057,-2.3063,-2.3068,-2.3066,-2.299,0,0,0,0,0,-2.2989,-2.3003,-2.3002,-2.3027,-2.303,-2.3025,-2.3032,-2.3025,-2.3029,-2.3031,-2.3031,-2.3036,-2.3047,-2.3055,-2.3066,-2.3097,-2.3096,-2.3111,-2.3116,-2.312,-2.3123,-2.3137,-2.3144,-2.3078,-2.3078,-2.3078,0,0,-2.3009,-2.301,-2.302,-2.3033,-2.3036,-2.305,-2.3026,-2.3043,-2.3053,-2.3034,-2.3055,-2.3055,-2.3059,-2.3086,-2.3098,-2.3087,-2.3141,-2.3124,-2.3127,-2.3127,-2.3141,-2.3147,-2.3153,-2.308,-2.308,-2.308,0,0,-2.3053,-2.3056,-2.3077,-2.308,-2.3085,-2.3081,-2.3086,-2.3087,-2.3086,-2.3108,-2.3093,-2.3105,-2.3126,-2.3129,-2.3134,-2.3178,-2.3165,-2.3182,-2.3207,-2.3221,-2.3226,-2.3231,-2.3245,-2.3251,-2.3185,-2.3185,-2.3185,0,-2.3077,-2.3098,-2.3089,-2.3106,-2.3111,-2.3094,-2.3115,-2.3119,-2.3127,-2.3131,-2.3119,-2.3144,-2.3146,-2.3173,-2.3183,-2.3188,-2.3193,-2.3181,-2.3227,-2.3231,-2.3235,-2.3248,-2.3254,-2.3187,-2.3187,-2.3187,-2.3186,0,-2.3127,-2.3142,-2.3158,-2.3165,-2.3173,-2.3192,-2.3185,-2.3194,-2.3186,-2.3183,-2.3205,-2.3207,-2.3217,-2.3223,-2.3216,-2.3248,-2.3241,-2.3229,-2.3207,-2.3243,-2.3255,-2.3261,-2.319,-2.3189,-2.3188,-2.3188,0,0,-2.3188,-2.319,-2.3196,-2.3198,-2.3202,-2.3213,-2.3231,-2.3241,-2.3248,-2.3254,-2.3268,-2.3286,-2.3274,-2.3279,-2.3272,-2.3285,-2.3318,-2.327,-2.327,-2.3278,-2.3352,-2.336,-2.3366,-2.331,-2.3311,-2.3312,-2.3351,0,-2.323,-2.326,-2.3252,-2.3281,-2.3294,-2.3278,-2.3293,-2.3297,-2.3295,-2.3305,-2.3303,-2.3315,-2.3299,-2.3301,-2.3314,-2.3311,-2.3332,-2.3309,-2.3322,-2.3323,-2.332,-2.3373,-2.3382,-2.3418,-2.3356,-2.3356,-2.3357,0,-2.3282,-2.3289,-2.332,-2.3321,-2.3326,-2.334,-2.3347,-2.3358,-2.3361,-2.3359,-2.3364,-2.3355,-2.3371,-2.3351,-2.3374,-2.3358,-2.3363,-2.3363,-2.3364,-2.3363,-2.3341,-2.3372,-2.343,-2.3435,-2.3365,-2.3364,-2.3364,0,-2.3321,-2.334,-2.336,-2.3363,-2.3364,-2.3374,-2.3375,-2.3378,-2.3384,-2.3391,-2.3394,-2.3403,-2.3408,-2.3415,-2.3407,-2.3394,-2.343,-2.341,-2.3428,-2.3428,-2.3435,-2.3434,-2.3492,-2.3441,-2.3441,-2.3441,-2.3441,0,-2.3368,-2.3387,-2.3377,-2.339,-2.341,-2.3401,-2.3422,-2.3421,-2.3423,-2.3435,-2.3422,-2.3433,-2.3424,-2.3434,-2.3428,-2.3447,-2.345,-2.3447,-2.3445,-2.3447,-2.3447,-2.3449,-2.3446,-2.3442,-2.3442,-2.3442,-2.3442,0,-2.3415,-2.3409,-2.343,-2.343,-2.343,-2.3445,-2.3444,-2.3456,-2.3452,-2.3467,-2.347,-2.3465,-2.3476,-2.347,-2.3482,-2.3478,-2.3502,-2.3497,-2.35,-2.3498,-2.3516,-2.3513,-2.3576,-2.3583,-2.3529,-2.3529,-2.353,0,-2.3444,-2.3458,-2.3459,-2.3466,-2.3467,-2.3479,-2.3484,-2.3476,-2.3482,-2.3487,-2.3497,-2.3507,-2.3515,-2.3533,-2.353,-2.3539,-2.3534,-2.3555,-2.3535,-2.3536,-2.3532,-2.3531,-2.3531,-2.3558,-2.3559,-2.356,-2.356,0,-2.3496,-2.3492,-2.3501,-2.3509,-2.3516,-2.3522,-2.3526,-2.3533,-2.3524,-2.3532,-2.3543,-2.3549,-2.356,-2.357,-2.3577,-2.3578,-2.3567,-2.3567,-2.3571,-2.3572,-2.3573,-2.3571,-2.3509,-2.3565,-2.3564,-2.3564,-2.3564,-2.3564,-2.3534,-2.3545,-2.3547,-2.3557,-2.3559,-2.3564,-2.3574,-2.3571,-2.3581,-2.3589,-2.3584,-2.3596,-2.3599,-2.3607,-2.3609,-2.3619,-2.361,-2.3617,-2.3618,-2.3619,-2.3621,-2.3573,-2.362,-2.362,-2.362,-2.362,-2.362,0,-2.3583,-2.3583,-2.3593,-2.3599,-2.3607,-2.3596,-2.3601,-2.3608,-2.3619,-2.3622,-2.363,-2.3642,-2.3651,-2.3649,-2.3657,-2.3665,-2.366,-2.3667,-2.3666,-2.3666,-2.3629,-2.3624,-2.3671,-2.3671,-2.3671,-2.3671,-2.3671,-2.3671,-2.361,-2.3627,-2.3624,-2.3643,-2.3643,-2.3655,-2.3658,-2.3662,-2.3664,-2.3678,-2.3686,-2.3684,-2.3685,-2.3693,-2.3701,-2.37,-2.3703,-2.3712,-2.3709,-2.3674,-2.3669,-2.3664,-2.3659,-2.3713,-2.3713,-2.3745,-2.3745,-2.3745]}]]